Regional Weather Roundup
Issued by NWS

Home | Current Version | Previous Version | Graphics & Text | Print | Product List | Glossary Off
Versions: 1 2 3 4 5 6 7 8 9 10 11 12 13 14 15 16 17 18 19 20 21 22 23 24 25 26 27 28 29 30 31 32 33 34 35 36 37 38 39 40 41 42 43 44 45 46 47 48 49 50

000
ASUS43 KTOP 240808
RWRKS

WEATHER ROUNDUP FOR KANSAS
NATIONAL WEATHER SERVICE GOODLAND KS
300 AM CDT THU AUG 24 2017

NOTE:  "FAIR" INDICATES FEW OR NO CLOUDS BELOW 12,000 FEET WITH NO
SIGNIFICANT WEATHER AND/OR OBSTRUCTIONS TO VISIBILITY.

KSZ001>006-013>018-027>032-041>047-240900-
NORTHWEST KANSAS

CITY           SKY/WX    TMP DP  RH WIND       PRES   REMARKS
GOODLAND       PTCLDY    64  62  93 S9        30.06R
HAYS           CLOUDY    62  52  69 S7        30.06S
HILL CITY      CLEAR     65  52  62 S7        30.03F
RUSSELL        CLEAR     65  51  60 S12       30.04F
$$

KSZ061>065-074>080-084>089-240900-
SOUTHWEST KANSAS

CITY           SKY/WX    TMP DP  RH WIND       PRES   REMARKS
DODGE CITY     CLOUDY    65  52  62 SE12      30.08S
ELKHART          N/A     64  64 100 S12         N/A
GARDEN CITY    PTCLDY    62  53  72 SE10      30.07S
GREAT BEND     CLOUDY    58  52  80 SE6       30.07S
LIBERAL        CLOUDY    65  64  97 S6        30.08F
PRATT          PTCLDY    61  51  69 S3        30.07S
$$

KSZ066>073-081>083-090>101-240900-
SOUTHEAST KANSAS

CITY           SKY/WX    TMP DP  RH WIND       PRES   REMARKS
CHANUTE        CLEAR     57  54  89 CALM      30.06S
COFFEYVILLE    CLEAR     59  56  89 N3        30.04F
HUTCHINSON     CLEAR     58  54  86 CALM      30.06S
MEDICINE LODGE   N/A     63  51  65 E3        30.06S
NEWTON         CLEAR     58  54  86 SE7       30.08S
PARSONS        CLEAR     56  55  97 CALM      30.06F
WICHITA INTL   PTCLDY    62  55  77 SE7       30.06S
WICHITA JABRA  CLEAR     60  57  89 SE5       30.06F
WICHITA MCCONL CLEAR     63  54  73 SE7       30.06S
WINFIELD       CLOUDY    62  54  74 E3        30.07S
$$

KSZ007>012-019>026-033>040-048>060-102>105-240900-
NORTHEAST KANSAS

CITY           SKY/WX    TMP DP  RH WIND       PRES   REMARKS
CONCORDIA      CLEAR     64  54  69 S12       30.04F
EMPORIA        CLEAR     59  56  89 SW3       30.06F
LAWRENCE       CLEAR     58  58 100 CALM      30.06F
MANHATTAN      CLEAR     58  57  97 CALM      30.07R
MARYSVILLE     CLEAR     61  55  82 S6        30.06S
OLATHE IND     CLEAR     60  57  89 CALM      30.07F
OLATHE EXE     CLEAR     62  58  86 CALM      30.07S
SALINA         CLEAR     59  53  80 S5        30.06S
TOPEKA BILLARD CLEAR     61  61 100 CALM      30.06S
TOPEKA FORBES  CLEAR     61  59  93 CALM      30.06S
$$




USA.gov is the U.S. government's official web portal to all federal, state and local government web resources and services.